Location: Unspecified
(0.0000°N, 0.0000°E)
Time: 02:19:20
(UTC+00:00)

N. Korean satellite - Visible Passes

Search period start: 15 December 2017 00:00
Search period end: 25 December 2017 00:00
Orbit: 461 x 513 km, 97.2° (Epoch: 14 December)

Date Brightness Start Highest point End Pass type
(mag) Time Alt. Az. Time Alt. Az. Time Alt. Az.
15 Dec 9.9 19:14:25 10° SW 19:16:13 13° W 19:18:02 10° WNW visible
16 Dec 8.7 18:49:28 10° SSW 18:52:43 31° W 18:55:59 10° NW visible
17 Dec 6.7 18:25:34 10° S 18:29:12 83° W 18:32:53 10° NNW visible
19 Dec 9.9 19:13:32 10° SW 19:15:26 14° W 19:17:21 10° WNW visible
20 Dec 8.7 18:48:37 10° SSW 18:51:55 32° W 18:55:14 10° NW visible
21 Dec 6.7 18:24:43 10° S 18:28:23 84° WSW 18:32:06 10° NNW visible
23 Dec 9.9 19:12:35 10° SW 19:14:36 14° W 19:16:37 10° WNW visible
24 Dec 8.6 18:47:44 10° SSW 18:51:04 33° W 18:54:27 10° NW visible
